[[{"header":{"parameterUnit":"m.s-1","parameterCategory":2,"la1":30.2991,"la2":30.254,"lo1":-89.0895,"lo2":-89.0444,"dy":0.0017,"dx":0.0017,"nx":28,"ny":28,"refTime":"2023-11-03T21:00:00:Z","depth":"0","parameterNumber":2,"parameterNumberName":"U-component_of_CURRENTS"},"data":[0,0,0,0,0,0,0,0,0,0,0,0,0,0,0,0,0,0,0,0,0,0,0,0,0,0,0,0,0,0,0,0,0,0,0,0,0,0,0,0,0,0,0,0,0,0,0,0,0,0,0,0,0,0,0,0,0,0,0.3881,0.3881,0,0.3834,0.3832,0.3831,0.3825,0.3827,0.3828,0.3829,0.3778,0.3776,0.3773,0,0,0,0,0,0,0,0,0,0,0,0,0,0.3862,0.3862,0.3881,0.3881,0.3881,0.3834,0.3832,0.3831,0.3825,0.3827,0.3828,0.383,0.3779,0.3776,0.3773,0,0,0,0,0,0,0,0,0,0,0,0,0,0.3839,0.3862,0.3881,0.388,0.388,0.3834,0.3832,0.383,0.3825,0.3827,0.3829,0.3831,0.378,0.3776,0.3772,0.3707,0,0,0.376,0.3759,0,0,0,0,0,0,0,0,0.384,0.3838,0.388,0.388,0.388,0.3846,0.3807,0.3792,0.3824,0.3835,0.3829,0.3832,0.3805,0.3799,0.3772,0.3705,0.3703,0.376,0.3757,0.3756,0.3755,0,0,0,0,0,0,0,0.3842,0.384,0.3852,0.388,0.3881,0.3847,0.3846,0.3803,0.3802,0.3835,0.3837,0.3846,0.3804,0.3776,0.3771,0.3702,0.376,0.3756,0.3754,0.3752,0.3697,0.3698,0,0,0,0,0,0,0.3871,0.3842,0.3854,0.3852,0.3876,0.3847,0.3845,0.3847,0.3802,0.3801,0.3845,0.3846,0.3782,0.3776,0.3769,0.3803,0.3756,0.3752,0.375,0.3696,0.3697,0.3698,0,0,0,0,0,0,0.387,0.3872,0.3856,0.3854,0.3851,0.3847,0.3848,0.3845,0.3839,0.3812,0.3808,0.3846,0.3783,0.3775,0.3752,0.3797,0.375,0.3747,0.3695,0.3697,0.3698,0.3797,0,0,0,0,0,0,0.3869,0.3871,0.3867,0.3856,0.3853,0.3843,0.3847,0.3843,0.3845,0.3847,0.3811,0.3807,0.3784,0.3758,0.3748,0.3791,0.3744,0.3694,0.3696,0.3697,0.3793,0.3802,0.3809,0,0,0,0,0,0.3869,0.3861,0.3867,0.3869,0.3852,0.3844,0.3837,0.3835,0.3844,0.3836,0.382,0.3809,0.3764,0.3755,0.3743,0.3785,0.3693,0.3695,0.3697,0.3789,0.38,0.3809,0,0,0,0,0,0,0.3829,0.386,0.3867,0.3863,0.3864,0.3848,0.3835,0.3841,0.3816,0.3819,0.3798,0.3791,0.3799,0.3764,0.3755,0.3775,0.3735,0.3735,0.3809,0.3819,0.3827,0.3851,0.374,0,0,0,0,0,0.3826,0.3839,0.3853,0.3846,0.385,0.3844,0.3837,0.3841,0.3828,0.382,0.3806,0.3791,0.379,0.3783,0.3763,0.3749,0.3764,0.3775,0.3784,0.3791,0.3803,0.3847,0.3861,0.3705,0.3705,0.3705,0,0,0.3808,0.3827,0.3832,0.3841,0.3835,0.3844,0.3842,0.3838,0.3858,0.3816,0.3822,0.3813,0.3793,0.3799,0.38,0.3779,0.385,0.3793,0.38,0.3808,0.3851,0.3866,0.388,0.3706,0.3706,0.3706,0,0,0.3789,0.3797,0.3807,0.3817,0.3831,0.3835,0.3846,0.3844,0.3855,0.3853,0.3854,0.3871,0.3836,0.3853,0.3854,0.3888,0.3895,0.3886,0.3944,0.3988,0.4001,0.4014,0.4089,0.4107,0.3888,0.3888,0.3888,0,0.3771,0.3787,0.3802,0.3817,0.3833,0.3843,0.3857,0.3863,0.386,0.3879,0.387,0.3887,0.3872,0.3918,0.3942,0.3913,0.3942,0.3912,0.4002,0.4014,0.4025,0.4099,0.4117,0.3893,0.3893,0.3892,0.3892,0,0.3766,0.3782,0.3784,0.3824,0.3835,0.3844,0.3877,0.389,0.3911,0.393,0.3977,0.3966,0.3982,0.3996,0.3978,0.4057,0.4059,0.4013,0.3984,0.4047,0.412,0.4138,0.39,0.3899,0.3897,0.3896,0,0,0.3728,0.3778,0.378,0.3807,0.3846,0.3856,0.3896,0.394,0.3981,0.4001,0.4059,0.4086,0.4097,0.4099,0.4098,0.4143,0.4262,0.4117,0.4117,0.4207,0.4392,0.4369,0.4386,0.4232,0.4235,0.4237,0.4427,0,0.3725,0.3759,0.3789,0.3826,0.3848,0.3886,0.3927,0.3971,0.4009,0.4063,0.4105,0.4149,0.4134,0.4156,0.4202,0.4234,0.4307,0.4217,0.4304,0.4308,0.429,0.4404,0.4136,0.4279,0.4444,0.4447,0.4449,0,0.3714,0.3746,0.3781,0.3849,0.3863,0.3893,0.3969,0.4007,0.4089,0.4121,0.4183,0.4211,0.4298,0.4263,0.439,0.4332,0.4381,0.4413,0.4419,0.4372,0.4316,0.4232,0.4305,0.4172,0.4476,0.4474,0.4472,0,0.3687,0.3743,0.3776,0.3797,0.3871,0.3904,0.3948,0.4025,0.4065,0.4168,0.4208,0.4303,0.435,0.4426,0.4501,0.4451,0.4645,0.4571,0.4614,0.4614,0.4389,0.4364,0.4348,0.4684,0.4684,0.4683,0.4683,0,0.3679,0.3704,0.3769,0.379,0.3837,0.3898,0.3958,0.4014,0.4097,0.4168,0.4238,0.4313,0.439,0.4499,0.4556,0.4662,0.4695,0.4667,0.4668,0.4419,0.4396,0.4269,0.4232,0.469,0.4689,0.4687,0.4686,0,0.3644,0.3682,0.3726,0.3804,0.3825,0.3863,0.3944,0.3989,0.4077,0.4172,0.4211,0.4335,0.4497,0.46,0.4742,0.4728,0.4694,0.4865,0.4594,0.4559,0.4427,0.4405,0.4293,0.4174,0.4929,0.4929,0.493,0,0.3623,0.3643,0.372,0.3742,0.3779,0.3837,0.3873,0.3962,0.4018,0.4196,0.4243,0.4425,0.4534,0.4743,0.4785,0.4911,0.476,0.4712,0.4557,0.4426,0.4403,0.4238,0.4132,0.4317,0.4312,0.4309,0.4306,0,0.3588,0.3621,0.3664,0.371,0.3748,0.3786,0.3857,0.3886,0.402,0.4096,0.4233,0.4336,0.4552,0.4543,0.4703,0.4728,0.444,0.4642,0.4542,0.3978,0.3755,0.3636,0.4227,0.4273,0.4276,0.4278,0.428,0.4281,0.3555,0.3572,0.3627,0.3665,0.3705,0.3729,0.3716,0.3804,0.386,0.3947,0.4134,0.421,0.4279,0.4454,0.4461,0.4258,0.4314,0.4069,0.4081,0.3948,0.3728,0.4294,0.4311,0.4314,0.4317,0.432,0.4322,0,0.3487,0.3521,0.357,0.3603,0.3611,0.3655,0.3687,0.3643,0.366,0.3808,0.3888,0.3926,0.3889,0.3923,0.3813,0.3677,0.3466,0.3568,0.322,0.3168,0.3687,0.3551,0.3357,0.3357,0.3357,0.3357,0.3357,0.3357,0.3451,0.3463,0.3492,0.3484,0.3505,0.3422,0.34,0.3362,0.3407,0.3389,0.3396,0.349,0.355,0.3488,0.328,0.3193,0.296,0.2811,0.2904,0.3212,0.3256,0.3297,0.3157,0.2883,0.2883,0.2138,0.2133,0.2129]},{"header":{"parameterUnit":"m.s-1","parameterCategory":2,"la1":30.2991,"la2":30.254,"lo1":-89.0895,"lo2":-89.0444,"dy":0.0017,"dx":0.0017,"nx":28,"ny":28,"refTime":"2023-11-03T21:00:00:Z","depth":"0","parameterNumber":3,"parameterNumberName":"V-component_of_CURRENTS"},"data":[0,0,0,0,0,0,0,0,0,0,0,0,0,0,0,0,0,0,0,0,0,0,0,0,0,0,0,0,0,0,0,0,0,0,0,0,0,0,0,0,0,0,0,0,0,0,0,0,0,0,0,0,0,0,0,0,0,0,-0.0582,-0.0581,0,-0.053,-0.0529,-0.0528,-0.0521,-0.0522,-0.0523,-0.0524,-0.0551,-0.055,-0.055,0,0,0,0,0,0,0,0,0,0,0,0,0,-0.0557,-0.0558,-0.0582,-0.0581,-0.0581,-0.053,-0.0529,-0.0528,-0.0521,-0.0522,-0.0523,-0.0524,-0.0551,-0.055,-0.055,0,0,0,0,0,0,0,0,0,0,0,0,0,-0.0539,-0.0558,-0.0582,-0.0575,-0.0574,-0.053,-0.0529,-0.0528,-0.052,-0.0522,-0.0523,-0.0524,-0.0551,-0.055,-0.055,-0.0522,0,0,-0.055,-0.055,0,0,0,0,0,0,0,0,-0.054,-0.0539,-0.0576,-0.0575,-0.0574,-0.0537,-0.0531,-0.0531,-0.052,-0.0536,-0.0524,-0.0525,-0.0555,-0.0555,-0.0535,-0.0524,-0.0525,-0.055,-0.055,-0.055,-0.055,0,0,0,0,0,0,0,-0.0542,-0.0541,-0.0557,-0.0576,-0.0575,-0.0535,-0.0534,-0.0529,-0.0537,-0.0535,-0.0535,-0.0536,-0.0555,-0.0535,-0.0536,-0.0525,-0.055,-0.055,-0.0549,-0.0549,-0.057,-0.0571,0,0,0,0,0,0,-0.0562,-0.0543,-0.0558,-0.0555,-0.0565,-0.0535,-0.0534,-0.0544,-0.0535,-0.0536,-0.0535,-0.0536,-0.0534,-0.0536,-0.0537,-0.0565,-0.055,-0.0549,-0.0549,-0.057,-0.057,-0.0571,0,0,0,0,0,0,-0.0562,-0.0564,-0.056,-0.0551,-0.0548,-0.0535,-0.0546,-0.0542,-0.0529,-0.0535,-0.0537,-0.0527,-0.0535,-0.0537,-0.0542,-0.0564,-0.0549,-0.0549,-0.0569,-0.057,-0.0571,-0.0582,0,0,0,0,0,0,-0.0561,-0.0564,-0.0566,-0.0553,-0.055,-0.053,-0.0545,-0.0541,-0.0529,-0.053,-0.0528,-0.0532,-0.0537,-0.0542,-0.0542,-0.0563,-0.0549,-0.0568,-0.0569,-0.0571,-0.0581,-0.0583,-0.0585,0,0,0,0,0,-0.0561,-0.0555,-0.0566,-0.0567,-0.0557,-0.053,-0.0523,-0.0515,-0.0528,-0.0509,-0.0523,-0.0532,-0.0551,-0.0542,-0.0542,-0.0563,-0.0567,-0.0569,-0.057,-0.058,-0.0583,-0.0585,0,0,0,0,0,0,-0.0526,-0.0554,-0.0566,-0.0565,-0.055,-0.0531,-0.0509,-0.0513,-0.0504,-0.0509,-0.0526,-0.0529,-0.0547,-0.0548,-0.0538,-0.0575,-0.0566,-0.0568,-0.0574,-0.0576,-0.0579,-0.0547,-0.0549,0,0,0,0,0,-0.0526,-0.0541,-0.0545,-0.054,-0.0534,-0.0523,-0.051,-0.0506,-0.0502,-0.0498,-0.051,-0.0527,-0.0548,-0.0557,-0.0564,-0.0571,-0.0548,-0.059,-0.0592,-0.0594,-0.0569,-0.0566,-0.0565,-0.0576,-0.0576,-0.0576,0,0,-0.0509,-0.0527,-0.0532,-0.0535,-0.052,-0.05,-0.0516,-0.0491,-0.0485,-0.0504,-0.0502,-0.0528,-0.0551,-0.0567,-0.0577,-0.0574,-0.0578,-0.0596,-0.0597,-0.0571,-0.0567,-0.0565,-0.0564,-0.0577,-0.0577,-0.0577,0,0,-0.0469,-0.0498,-0.0488,-0.0482,-0.0473,-0.0472,-0.047,-0.0459,-0.0465,-0.0465,-0.0496,-0.0531,-0.0544,-0.0573,-0.059,-0.0605,-0.0589,-0.0621,-0.0607,-0.0605,-0.0603,-0.0602,-0.0563,-0.0557,-0.0625,-0.0625,-0.0625,0,-0.0442,-0.0444,-0.0471,-0.0453,-0.0447,-0.0464,-0.0436,-0.0439,-0.0437,-0.0444,-0.0466,-0.0509,-0.0546,-0.0574,-0.0597,-0.0611,-0.0587,-0.0597,-0.0606,-0.0604,-0.0602,-0.0563,-0.0557,-0.0625,-0.0625,-0.0625,-0.0625,0,-0.0391,-0.0391,-0.0378,-0.0382,-0.0374,-0.0352,-0.0371,-0.0372,-0.0399,-0.0411,-0.0442,-0.049,-0.051,-0.0556,-0.0585,-0.0604,-0.0583,-0.0607,-0.0595,-0.0601,-0.056,-0.0553,-0.0626,-0.0626,-0.0626,-0.0626,0,0,-0.0334,-0.0343,-0.0338,-0.0335,-0.034,-0.0328,-0.0328,-0.0331,-0.032,-0.0364,-0.0353,-0.0447,-0.0471,-0.0491,-0.0544,-0.0569,-0.0563,-0.0584,-0.0584,-0.0535,-0.052,-0.046,-0.0447,-0.0587,-0.0586,-0.0586,-0.0493,0,-0.028,-0.0247,-0.0268,-0.0237,-0.0222,-0.0252,-0.0244,-0.0256,-0.0276,-0.0269,-0.0347,-0.0354,-0.0447,-0.0455,-0.0499,-0.0541,-0.0547,-0.0583,-0.0528,-0.0525,-0.0464,-0.0438,-0.04,-0.0309,-0.0486,-0.0485,-0.0484,0,-0.022,-0.0215,-0.0173,-0.018,-0.0173,-0.0158,-0.0153,-0.0148,-0.0159,-0.0166,-0.0196,-0.0235,-0.0289,-0.0356,-0.0416,-0.043,-0.0465,-0.0504,-0.0502,-0.043,-0.0453,-0.0334,-0.0291,-0.047,-0.0474,-0.0475,-0.0475,0,-0.0173,-0.0154,-0.0128,-0.0127,-0.0125,-0.0114,-0.0112,-0.0113,-0.0086,-0.0084,-0.0043,-0.0121,-0.0125,-0.0202,-0.0295,-0.0346,-0.0326,-0.0405,-0.0374,-0.0369,-0.0314,-0.0305,-0.0425,-0.0416,-0.0416,-0.0416,-0.0417,0,-0.0125,-0.0107,-0.0102,-0.0089,-0.0046,-0.0064,-0.0015,-0.0012,0.0027,0.0103,0.0023,0.0088,-0.0086,-0.0104,-0.0214,-0.0245,-0.0255,-0.0339,-0.0337,-0.0316,-0.0309,-0.0445,-0.0553,-0.0413,-0.0414,-0.0414,-0.0415,0,-0.0084,-0.0081,-0.0048,-0.0033,-0.0021,0.001,0.0059,0.0109,0.014,0.0252,0.027,0.0255,0.0247,0.0109,0.001,-0.0107,-0.0235,-0.0172,-0.0115,-0.0108,-0.0277,-0.0386,-0.0431,-0.0499,-0.013,-0.0128,-0.0127,0,-0.0061,-0.0037,0.0002,0.0037,0.0047,0.0089,0.0141,0.017,0.0251,0.038,0.0465,0.0485,0.0561,0.0448,0.0246,0.012,-0.0098,0.003,-0.0085,-0.0251,-0.0372,-0.0462,-0.0525,-0.0015,-0.0012,-0.001,-0.0008,0,-0.0014,0.0004,0.0031,0.011,0.0168,0.0236,0.0317,0.0406,0.0493,0.0628,0.081,0.0887,0.0803,0.0695,0.0494,0.0364,-0.0088,0.007,-0.0131,-0.0298,-0.0373,-0.0447,-0.0099,0.001,0.0008,0.0007,0.0006,0.0005,0.0032,0.0066,0.0119,0.0194,0.0269,0.04,0.0494,0.063,0.0818,0.108,0.1104,0.1328,0.1077,0.0828,0.0584,0.0136,0.0095,-0.0037,-0.015,-0.0222,-0.031,0.0107,0.0226,0.0225,0.0224,0.0224,0.0224,0,0.0113,0.0143,0.0205,0.0314,0.0427,0.045,0.0633,0.0772,0.1044,0.1337,0.1541,0.165,0.1331,0.0918,0.0312,-0.0042,-0.0218,-0.0258,-0.0427,-0.048,-0.0123,-0.0146,-0.0067,-0.0067,-0.0067,-0.0067,-0.0067,-0.0067,0.016,0.0236,0.0262,0.0446,0.0532,0.0719,0.0844,0.1069,0.1308,0.1723,0.1979,0.2132,0.1821,0.0636,-0.0193,-0.0388,-0.0687,-0.0696,-0.0863,-0.0692,-0.0683,-0.0675,-0.0725,-0.0769,-0.077,-0.1181,-0.1185,-0.1188]}],[{"header":{"parameterUnit":"m.s-1","parameterCategory":2,"la1":30.2991,"la2":30.254,"lo1":-89.0895,"lo2":-89.0444,"dy":0.0017,"dx":0.0017,"nx":28,"ny":28,"refTime":"2023-11-03T21:00:00:Z","depth":"2","parameterNumber":2,"parameterNumberName":"U-component_of_CURRENTS"},"data":[0,0,0,0,0,0,0,0,0,0,0,0,0,0,0,0,0,0,0,0,0,0,0,0,0,0,0,0,0,0,0,0,0,0,0,0,0,0,0,0,0,0,0,0,0,0,0,0,0,0,0,0,0,0,0,0,0,0,0.2571,0.2572,0,0.2636,0.2636,0.2637,0.2677,0.2677,0.2678,0.2678,0.2665,0.2664,0.2663,0,0,0,0,0,0,0,0,0,0,0,0,0,0.2538,0.2538,0.2571,0.2572,0.2573,0.2636,0.2636,0.2637,0.2677,0.2677,0.2678,0.2678,0.2665,0.2664,0.2663,0,0,0,0,0,0,0,0,0,0,0,0,0,0.257,0.2538,0.2571,0.2602,0.2606,0.2636,0.2637,0.2637,0.2677,0.2677,0.2678,0.2679,0.2665,0.2664,0.2663,0.2644,0,0,0.266,0.2659,0,0,0,0,0,0,0,0,0.2568,0.2571,0.2597,0.26,0.2604,0.2651,0.262,0.2636,0.2677,0.2648,0.2678,0.2679,0.2654,0.2654,0.2663,0.2643,0.2643,0.2659,0.2659,0.2658,0.2658,0,0,0,0,0,0,0,0.2566,0.2569,0.2595,0.2598,0.2602,0.2632,0.2637,0.2624,0.2643,0.265,0.2654,0.2664,0.2655,0.2664,0.2662,0.2643,0.266,0.2659,0.2658,0.2657,0.2674,0.2675,0,0,0,0,0,0,0.2558,0.2566,0.2593,0.2597,0.259,0.2632,0.2637,0.2634,0.2645,0.2649,0.2664,0.2666,0.2665,0.2664,0.2662,0.2702,0.2658,0.2657,0.2657,0.2673,0.2674,0.2676,0,0,0,0,0,0,0.2557,0.256,0.259,0.2586,0.2592,0.2632,0.2628,0.2635,0.2671,0.2657,0.2659,0.2696,0.2666,0.2663,0.2666,0.2699,0.2657,0.2656,0.2672,0.2673,0.2675,0.2742,0,0,0,0,0,0,0.2556,0.2558,0.2558,0.2585,0.2592,0.2615,0.2628,0.2636,0.2676,0.268,0.2685,0.2683,0.2666,0.2667,0.2665,0.2697,0.2655,0.267,0.2672,0.2674,0.2738,0.2745,0.2752,0,0,0,0,0,0.2554,0.2551,0.2557,0.2561,0.2588,0.2615,0.2622,0.2651,0.2677,0.2688,0.2694,0.2684,0.2679,0.2667,0.2663,0.2696,0.2669,0.2672,0.2674,0.2735,0.2744,0.2751,0,0,0,0,0,0,0.2539,0.2556,0.2563,0.2566,0.2592,0.2623,0.2646,0.2668,0.2686,0.2696,0.2688,0.2685,0.2708,0.2687,0.2674,0.2708,0.2677,0.2679,0.2724,0.2732,0.2739,0.2757,0.2654,0,0,0,0,0,0.2533,0.2535,0.256,0.2565,0.2584,0.2621,0.2641,0.266,0.268,0.2692,0.2686,0.2691,0.2711,0.271,0.2708,0.2714,0.2729,0.2736,0.2743,0.2749,0.2762,0.2825,0.284,0.2684,0.2684,0.2684,0,0,0.2527,0.2541,0.2541,0.2563,0.2593,0.2614,0.2636,0.2672,0.2691,0.2683,0.2699,0.2713,0.272,0.2736,0.2744,0.2724,0.2799,0.2752,0.2757,0.2767,0.2829,0.2845,0.2859,0.2685,0.2685,0.2685,0,0,0.2524,0.2537,0.2541,0.2568,0.261,0.2625,0.2643,0.2675,0.2696,0.271,0.2728,0.2762,0.2755,0.2779,0.2792,0.2834,0.2839,0.2836,0.2878,0.2939,0.2953,0.2966,0.2995,0.301,0.2832,0.2832,0.2832,0,0.2519,0.2527,0.2549,0.2573,0.2603,0.2635,0.266,0.268,0.2702,0.273,0.2719,0.2783,0.2782,0.2849,0.2867,0.2852,0.2878,0.2847,0.2951,0.2963,0.2975,0.3002,0.3018,0.2836,0.2835,0.2835,0.2835,0,0.2531,0.254,0.2557,0.2587,0.2617,0.2647,0.2681,0.2707,0.2735,0.2755,0.2822,0.2832,0.2878,0.2889,0.2891,0.2982,0.2971,0.296,0.2933,0.2995,0.3019,0.3034,0.2841,0.284,0.2839,0.2838,0,0,0.25,0.2551,0.2557,0.2579,0.2634,0.2658,0.2703,0.2754,0.2807,0.2822,0.2892,0.2939,0.2966,0.2985,0.3002,0.3052,0.3152,0.3045,0.3047,0.3081,0.328,0.3202,0.321,0.3169,0.3172,0.3174,0.3261,0,0.2504,0.254,0.2571,0.2608,0.2631,0.2691,0.2731,0.2785,0.2833,0.2892,0.2945,0.301,0.2996,0.3045,0.3092,0.3148,0.3196,0.3129,0.3209,0.3211,0.3141,0.3227,0.2963,0.3013,0.3275,0.3277,0.3279,0,0.2501,0.2525,0.2569,0.2628,0.2651,0.2688,0.2792,0.2826,0.2922,0.2976,0.3055,0.3091,0.3185,0.3158,0.3278,0.324,0.3271,0.3297,0.33,0.3218,0.3162,0.2995,0.303,0.3304,0.3302,0.33,0.3298,0,0.2467,0.2519,0.2557,0.2582,0.2656,0.2715,0.276,0.2861,0.2922,0.3043,0.3119,0.3203,0.3271,0.3331,0.3381,0.3351,0.3498,0.3455,0.3407,0.3401,0.3186,0.3155,0.3545,0.3545,0.3544,0.3544,0.3544,0,0.2457,0.2476,0.2553,0.2577,0.2634,0.2704,0.2788,0.2863,0.2991,0.306,0.3161,0.3242,0.3326,0.3405,0.3428,0.3468,0.3539,0.344,0.3434,0.3198,0.3169,0.3422,0.3407,0.3547,0.3547,0.3546,0.3546,0,0.2409,0.246,0.2489,0.2581,0.2616,0.2659,0.2791,0.2865,0.2999,0.3104,0.3158,0.3307,0.3413,0.3481,0.3579,0.3529,0.3576,0.3569,0.3273,0.3231,0.3418,0.3405,0.3522,0.352,0.3519,0.3517,0.3516,0,0.2381,0.2403,0.2475,0.2511,0.2563,0.2641,0.2711,0.285,0.2921,0.3121,0.3164,0.3333,0.3386,0.3508,0.3495,0.3529,0.3592,0.3274,0.3163,0.3442,0.3425,0.3413,0.3403,0.2898,0.2892,0.2887,0.2883,0,0.2329,0.2367,0.2399,0.2479,0.2556,0.2589,0.2687,0.2742,0.2894,0.2997,0.3107,0.318,0.3315,0.3218,0.328,0.3257,0.3244,0.3174,0.3574,0.2944,0.286,0.2841,0.285,0.2839,0.2844,0.2847,0.2849,0.2851,0.2289,0.229,0.2364,0.2422,0.2487,0.2502,0.2514,0.26,0.2664,0.2744,0.2905,0.2926,0.298,0.2938,0.2873,0.2839,0.3057,0.2893,0.2905,0.2923,0.2836,0.2754,0.2696,0.2699,0.2702,0.2704,0.2707,0,0.2225,0.2246,0.2308,0.2338,0.2337,0.2436,0.247,0.2432,0.2416,0.2517,0.2566,0.2405,0.2377,0.2464,0.2347,0.2349,0.2299,0.2246,0.215,0.2197,0.2239,0.2111,0.1781,0.1778,0.1775,0.1772,0,0,0.2189,0.2188,0.2201,0.2161,0.2203,0.2179,0.2169,0.2113,0.2117,0.2048,0.2047,0.2241,0.237,0.2028,0.2004,0.1865,0.2003,0.1793,0.2544,0.2477,0.2513,0.2634,0.2496,0,0,0,0,0]},{"header":{"parameterUnit":"m.s-1","parameterCategory":2,"la1":30.2991,"la2":30.254,"lo1":-89.0895,"lo2":-89.0444,"dy":0.0017,"dx":0.0017,"nx":28,"ny":28,"refTime":"2023-11-03T21:00:00:Z","depth":"2","parameterNumber":3,"parameterNumberName":"V-component_of_CURRENTS"},"data":[0,0,0,0,0,0,0,0,0,0,0,0,0,0,0,0,0,0,0,0,0,0,0,0,0,0,0,0,0,0,0,0,0,0,0,0,0,0,0,0,0,0,0,0,0,0,0,0,0,0,0,0,0,0,0,0,0,0,0.0199,0.0199,0,0.016,0.0159,0.0158,0.0128,0.0128,0.0128,0.0128,0.0085,0.0084,0.0083,0,0,0,0,0,0,0,0,0,0,0,0,0,0.0198,0.0198,0.0199,0.0199,0.0198,0.016,0.0159,0.0158,0.0128,0.0128,0.0128,0.0128,0.0085,0.0084,0.0082,0,0,0,0,0,0,0,0,0,0,0,0,0,0.018,0.0198,0.0199,0.0181,0.0179,0.016,0.0159,0.0158,0.0128,0.0128,0.0128,0.0128,0.0085,0.0084,0.0082,0.0074,0,0,0.0077,0.0076,0,0,0,0,0,0,0,0,0.0181,0.018,0.0184,0.0182,0.018,0.0151,0.0143,0.013,0.0128,0.0145,0.0128,0.0128,0.0108,0.0105,0.0094,0.0072,0.007,0.0077,0.0076,0.0075,0.0075,0,0,0,0,0,0,0,0.0183,0.0181,0.0181,0.0183,0.0181,0.0157,0.0155,0.014,0.0126,0.0143,0.0142,0.0141,0.0107,0.0096,0.0093,0.0069,0.0077,0.0076,0.0075,0.0074,0.0042,0.0042,0,0,0,0,0,0,0.0195,0.0183,0.0182,0.018,0.0183,0.0158,0.0155,0.0158,0.0126,0.0121,0.0141,0.014,0.0099,0.0095,0.0091,0.0099,0.0075,0.0074,0.0073,0.0042,0.0042,0.0042,0,0,0,0,0,0,0.0195,0.0196,0.0184,0.0182,0.0179,0.0159,0.0162,0.0158,0.0146,0.0125,0.012,0.0135,0.0098,0.0094,0.0081,0.0096,0.0073,0.0072,0.0042,0.0042,0.0042,0.0101,0,0,0,0,0,0,0.0196,0.0196,0.02,0.0183,0.018,0.0181,0.0162,0.0157,0.0147,0.0145,0.0118,0.0113,0.0098,0.0083,0.0079,0.0093,0.007,0.0041,0.0042,0.0042,0.0099,0.0104,0.0107,0,0,0,0,0,0.0196,0.0208,0.02,0.02,0.0187,0.0182,0.0178,0.016,0.0147,0.0148,0.0127,0.0114,0.0082,0.0082,0.0077,0.0091,0.0041,0.0042,0.0042,0.0098,0.0103,0.0107,0,0,0,0,0,0,0.0208,0.0205,0.0197,0.0207,0.0197,0.0178,0.0176,0.0162,0.0144,0.014,0.0115,0.0109,0.0104,0.0085,0.0086,0.0081,0.006,0.0059,0.0104,0.0109,0.0113,0.0135,0.0069,0,0,0,0,0,0.0214,0.0223,0.0211,0.0219,0.0215,0.0194,0.0187,0.0177,0.0161,0.0152,0.0134,0.0113,0.0101,0.0095,0.0079,0.0076,0.0055,0.0081,0.0085,0.0089,0.0102,0.0073,0.0076,0.0043,0.0043,0.0043,0,0,0.0221,0.0221,0.0226,0.0223,0.0211,0.022,0.0189,0.0186,0.0196,0.0151,0.0154,0.0126,0.0101,0.01,0.0096,0.0088,0.0087,0.0089,0.0093,0.0105,0.0074,0.0077,0.008,0.0043,0.0043,0.0043,0,0,0.0246,0.024,0.0255,0.0251,0.0243,0.0236,0.0238,0.0219,0.0212,0.021,0.018,0.0161,0.0143,0.0128,0.012,0.0134,0.0106,0.0127,0.0171,0.0143,0.0146,0.0148,0.0127,0.0127,0.0133,0.0133,0.0133,0,0.0254,0.0275,0.0257,0.0269,0.0276,0.0249,0.0268,0.0259,0.024,0.0243,0.0221,0.0189,0.016,0.0163,0.0166,0.0146,0.0126,0.0158,0.0149,0.0151,0.0152,0.013,0.0129,0.0136,0.0136,0.0135,0.0135,0,0.0287,0.0304,0.0313,0.0326,0.0328,0.0341,0.0332,0.0333,0.0321,0.0311,0.0304,0.0258,0.0242,0.0226,0.0202,0.02,0.0183,0.0156,0.0141,0.016,0.0135,0.0133,0.014,0.0139,0.0138,0.0137,0,0,0.0311,0.0334,0.0338,0.0362,0.0362,0.0375,0.0392,0.0406,0.0428,0.0395,0.0416,0.0371,0.0338,0.0324,0.0282,0.0256,0.0238,0.0216,0.0213,0.0204,0.0182,0.0152,0.0146,0.021,0.021,0.021,0.0162,0,0.0346,0.0392,0.039,0.0443,0.0469,0.0458,0.0483,0.0489,0.0484,0.0496,0.0447,0.0445,0.0379,0.0371,0.0332,0.0267,0.0236,0.0254,0.0159,0.0157,0.0134,0.0144,0.0162,0.0119,0.016,0.016,0.0159,0,0.0384,0.0414,0.0466,0.052,0.0529,0.0556,0.0599,0.0617,0.062,0.0611,0.059,0.0549,0.051,0.0447,0.0345,0.0361,0.0279,0.022,0.0216,0.0169,0.0122,0.0106,0.0113,0.0156,0.0156,0.0156,0.0156,0,0.0425,0.0475,0.0526,0.0538,0.0582,0.0612,0.0641,0.0655,0.069,0.0687,0.0711,0.064,0.0624,0.0512,0.0381,0.0364,0.0269,0.0227,0.0123,0.012,0.0108,0.0104,0.0153,0.0153,0.0153,0.0153,0.0153,0,0.0474,0.0518,0.0553,0.0583,0.0661,0.0666,0.0746,0.0756,0.0787,0.0852,0.0775,0.0804,0.064,0.0565,0.0422,0.0274,0.0295,0.0139,0.0107,0.0128,0.0126,0.0135,0.0133,0.0151,0.0151,0.0152,0.0152,0,0.0519,0.0535,0.0605,0.0661,0.0685,0.0743,0.0831,0.0889,0.09,0.0983,0.099,0.0933,0.0835,0.0664,0.0489,0.0344,0.0194,0.0131,0.017,0.0144,0.0053,0.0055,0.0014,0.0012,0.0011,0.001,0.0009,0,0.055,0.0586,0.0665,0.0716,0.0749,0.0835,0.0902,0.0943,0.1013,0.1074,0.1125,0.1054,0.1022,0.0747,0.0481,0.0231,0.0196,0.0073,0.0034,0.0066,0.0039,0.0043,0.0047,0.0042,0.0041,0.0041,0.004,0,0.0615,0.0634,0.0694,0.0792,0.0874,0.0975,0.1075,0.1149,0.1216,0.1275,0.1337,0.1313,0.1066,0.0809,0.0457,0.0283,0.011,0.0055,0.0086,0.0071,0.0087,0.0062,0.0066,0.0036,0.0037,0.0037,0.0037,0.0037,0.0665,0.0719,0.0787,0.0886,0.0983,0.1105,0.1197,0.1302,0.1417,0.1505,0.1482,0.1433,0.1155,0.069,0.0398,0.008,0.0094,-0.0029,-0.0025,-0.0022,-0.0012,0.0,-0.0065,-0.0065,-0.0065,-0.0065,-0.0065,0,0.0721,0.0782,0.0876,0.0996,0.1109,0.1143,0.1304,0.1388,0.1529,0.1583,0.1609,0.1327,0.1046,0.0724,0.0255,-0.0019,-0.0038,-0.0112,-0.007,-0.0064,-0.0059,-0.0051,-0.0114,-0.0115,-0.0116,-0.0117,0,0,0.0756,0.0847,0.0892,0.1077,0.1167,0.1306,0.1401,0.151,0.1577,0.1616,0.157,0.1499,0.1126,0.0776,0.0414,0.015,0.0102,0.0091,0.016,0.026,0.0268,0.0018,0.0041,0,0,0,0,0]}],[{"header":{"parameterUnit":"m.s-1","parameterCategory":2,"la1":30.2991,"la2":30.254,"lo1":-89.0895,"lo2":-89.0444,"dy":0.0017,"dx":0.0017,"nx":28,"ny":28,"refTime":"2023-11-03T21:00:00:Z","depth":"4","parameterNumber":2,"parameterNumberName":"U-component_of_CURRENTS"},"data":[0,0,0,0,0,0,0,0,0,0,0,0,0,0,0,0,0,0,0,0,0,0,0,0,0,0,0,0,0,0,0,0,0,0,0,0,0,0,0,0,0,0,0,0,0,0,0,0,0,0,0,0,0,0,0,0,0,0,0.1433,0.1434,0,0.1516,0.1517,0.1518,0.1581,0.1581,0.1582,0.1583,0.1662,0.1663,0.1665,0,0,0,0,0,0,0,0,0,0,0,0,0,0.1338,0.1339,0.1433,0.1434,0.1436,0.1516,0.1517,0.1518,0.158,0.1581,0.1582,0.1583,0.1662,0.1663,0.1665,0,0,0,0,0,0,0,0,0,0,0,0,0,0.1394,0.134,0.1433,0.1478,0.1483,0.1516,0.1517,0.1518,0.158,0.1581,0.1583,0.1584,0.1661,0.1663,0.1665,0.1654,0,0,0.1671,0.1672,0,0,0,0,0,0,0,0,0.139,0.1397,0.147,0.1475,0.1481,0.1541,0.1513,0.1564,0.158,0.1541,0.1583,0.1584,0.1622,0.1627,0.1637,0.1657,0.1661,0.1671,0.1673,0.1674,0.1674,0,0,0,0,0,0,0,0.1386,0.1394,0.1464,0.1472,0.1478,0.1498,0.1507,0.1523,0.1572,0.1544,0.155,0.1562,0.1625,0.1635,0.1639,0.1662,0.1671,0.1673,0.1674,0.1675,0.1777,0.1778,0,0,0,0,0,0,0.1379,0.139,0.1461,0.1466,0.144,0.1499,0.1509,0.1519,0.1572,0.1582,0.1561,0.1565,0.1631,0.1637,0.1642,0.172,0.1674,0.1675,0.1677,0.1775,0.1777,0.1779,0,0,0,0,0,0,0.1377,0.1385,0.1458,0.1432,0.1443,0.1499,0.151,0.152,0.1566,0.1585,0.1595,0.1602,0.1632,0.1639,0.1691,0.172,0.1676,0.1678,0.1774,0.1776,0.1778,0.1818,0,0,0,0,0,0,0.1374,0.1383,0.1402,0.1431,0.1444,0.1497,0.151,0.1521,0.1571,0.1577,0.1622,0.1629,0.1633,0.1688,0.1693,0.1722,0.168,0.1772,0.1775,0.1777,0.1815,0.1822,0.1827,0,0,0,0,0,0.137,0.1388,0.1402,0.1412,0.1463,0.1498,0.1507,0.1548,0.1572,0.1594,0.1632,0.163,0.1709,0.1691,0.1696,0.1727,0.1771,0.1774,0.1777,0.1813,0.182,0.1827,0,0,0,0,0,0,0.1362,0.1397,0.1413,0.1443,0.1477,0.151,0.1543,0.1566,0.1613,0.1632,0.1648,0.1657,0.1712,0.1715,0.1695,0.1765,0.174,0.1744,0.1765,0.1772,0.1778,0.1762,0.1682,0,0,0,0,0,0.1365,0.1388,0.1423,0.1451,0.1472,0.1512,0.1539,0.1566,0.1605,0.1629,0.1658,0.1692,0.1723,0.1746,0.1769,0.1807,0.1817,0.183,0.1836,0.1841,0.1833,0.1891,0.1902,0.179,0.179,0.179,0,0,0.1368,0.1394,0.1407,0.1451,0.1485,0.1514,0.1532,0.1583,0.1611,0.1628,0.1687,0.1716,0.1738,0.1783,0.1808,0.1795,0.188,0.1846,0.185,0.1838,0.1896,0.1907,0.1916,0.1792,0.1792,0.1791,0,0,0.1379,0.1413,0.1435,0.1465,0.152,0.1541,0.1562,0.1611,0.1645,0.1697,0.1719,0.1766,0.1813,0.1832,0.1847,0.1899,0.191,0.1917,0.1936,0.1993,0.2003,0.2011,0.2041,0.2052,0.192,0.192,0.192,0,0.1388,0.1415,0.1449,0.1479,0.1509,0.1555,0.1585,0.1619,0.1679,0.1708,0.1724,0.1812,0.1831,0.1882,0.19,0.1912,0.1942,0.1905,0.2001,0.2009,0.2017,0.2046,0.2057,0.1923,0.1922,0.1922,0.1922,0,0.1403,0.144,0.1461,0.1508,0.1541,0.1581,0.1625,0.167,0.1717,0.1746,0.1823,0.1857,0.1912,0.1926,0.1928,0.1996,0.1998,0.2002,0.198,0.2031,0.2058,0.2069,0.1926,0.1925,0.1925,0.1924,0,0,0.1386,0.1457,0.1468,0.1494,0.1564,0.1587,0.1646,0.1701,0.1749,0.1808,0.1873,0.192,0.1956,0.1974,0.1997,0.2034,0.2113,0.2045,0.2047,0.2068,0.2236,0.2099,0.2098,0.2148,0.215,0.2152,0.2233,0,0.1394,0.144,0.148,0.1531,0.1558,0.1621,0.1666,0.1724,0.1786,0.1859,0.191,0.1982,0.1971,0.2021,0.2057,0.2106,0.2145,0.209,0.2187,0.2189,0.2057,0.2106,0.2159,0.2241,0.2244,0.2246,0.2247,0,0.1392,0.1425,0.1474,0.1541,0.1562,0.1606,0.1695,0.1744,0.1846,0.1902,0.1983,0.2034,0.2108,0.21,0.2195,0.217,0.2205,0.2227,0.2232,0.2091,0.2072,0.218,0.2267,0.2265,0.2264,0.2262,0.2261,0,0.1341,0.1418,0.1455,0.148,0.1564,0.1614,0.1669,0.1765,0.1824,0.1951,0.2017,0.2104,0.2186,0.2233,0.2282,0.2263,0.238,0.2362,0.2264,0.2255,0.2336,0.2326,0.2429,0.2429,0.2429,0.2429,0.2429,0,0.1314,0.1346,0.1444,0.1463,0.1522,0.1596,0.1679,0.175,0.1872,0.1939,0.2047,0.2115,0.2231,0.2308,0.2321,0.2321,0.2421,0.2264,0.2268,0.2351,0.2342,0.2344,0.2333,0.2432,0.2431,0.2431,0.243,0,0.1245,0.1309,0.1357,0.146,0.1502,0.1547,0.1685,0.1734,0.1866,0.1969,0.2021,0.217,0.2263,0.2342,0.2439,0.2371,0.2384,0.2364,0.2446,0.2454,0.2207,0.2197,0.2245,0.2241,0.2238,0.2235,0.2232,0,0.1207,0.1231,0.1345,0.1377,0.1435,0.1524,0.1579,0.172,0.1779,0.197,0.2003,0.2164,0.2241,0.2261,0.235,0.2376,0.2352,0.2335,0.2249,0.219,0.219,0.2186,0.2181,0.2227,0.2226,0.2225,0.2224,0,0.1135,0.1194,0.1231,0.1306,0.1373,0.1433,0.1532,0.1569,0.1725,0.1867,0.1946,0.2007,0.2115,0.2179,0.2235,0.2239,0.2324,0.2298,0.2304,0.2223,0.2168,0.2171,0.217,0.2212,0.2214,0.2215,0.2215,0,0.1087,0.1095,0.116,0.1215,0.1285,0.1314,0.1382,0.1458,0.1543,0.1756,0.1781,0.194,0.2095,0.2111,0.2147,0.2157,0.2115,0.2025,0.2045,0.2059,0.196,0.186,0.1813,0,0,0,0,0,0.1036,0.1031,0.1064,0.1106,0.1166,0.1213,0.1332,0.1404,0.1567,0.1576,0.1678,0.1765,0.1843,0.1929,0.1903,0.2057,0.2115,0.2015,0.2019,0.2144,0.2158,0.2058,0,0,0,0,0,0,0.0996,0.1017,0.1023,0.1003,0.1013,0.1067,0.1134,0.1243,0.1266,0.1445,0.1505,0.1644,0.1754,0.1841,0.1864,0.189,0.1852,0.2123,0.2118,0.2136,0.2149,0.216,0.2062,0,0,0,0,0]},{"header":{"parameterUnit":"m.s-1","parameterCategory":2,"la1":30.2991,"la2":30.254,"lo1":-89.0895,"lo2":-89.0444,"dy":0.0017,"dx":0.0017,"nx":28,"ny":28,"refTime":"2023-11-03T21:00:00:Z","depth":"4","parameterNumber":3,"parameterNumberName":"V-component_of_CURRENTS"},"data":[0,0,0,0,0,0,0,0,0,0,0,0,0,0,0,0,0,0,0,0,0,0,0,0,0,0,0,0,0,0,0,0,0,0,0,0,0,0,0,0,0,0,0,0,0,0,0,0,0,0,0,0,0,0,0,0,0,0,0.0245,0.0245,0,0.023,0.0229,0.0229,0.0217,0.0217,0.0217,0.0217,0.0185,0.0184,0.0183,0,0,0,0,0,0,0,0,0,0,0,0,0,0.0238,0.0238,0.0245,0.0245,0.0245,0.023,0.0229,0.0229,0.0217,0.0217,0.0217,0.0217,0.0185,0.0184,0.0183,0,0,0,0,0,0,0,0,0,0,0,0,0,0.0232,0.0238,0.0245,0.0238,0.0238,0.023,0.0229,0.0229,0.0217,0.0217,0.0217,0.0217,0.0185,0.0184,0.0183,0.0173,0,0,0.0179,0.0178,0,0,0,0,0,0,0,0,0.0232,0.0232,0.0239,0.0239,0.0238,0.0227,0.0215,0.021,0.0217,0.0223,0.0217,0.0217,0.0198,0.0196,0.019,0.0172,0.017,0.0179,0.0178,0.0177,0.0177,0,0,0,0,0,0,0,0.0233,0.0232,0.0237,0.0239,0.0239,0.0228,0.0227,0.0214,0.0209,0.0222,0.0222,0.0223,0.0198,0.0192,0.019,0.017,0.0179,0.0177,0.0177,0.0176,0.0156,0.0156,0,0,0,0,0,0,0.024,0.0233,0.0238,0.0237,0.0238,0.0228,0.0227,0.0229,0.0209,0.0207,0.0223,0.0222,0.0194,0.0191,0.0188,0.02,0.0177,0.0176,0.0175,0.0155,0.0156,0.0156,0,0,0,0,0,0,0.024,0.024,0.0238,0.0236,0.0235,0.0228,0.023,0.0229,0.0228,0.021,0.0207,0.0225,0.0194,0.019,0.0182,0.0198,0.0175,0.0174,0.0155,0.0155,0.0156,0.0208,0,0,0,0,0,0,0.024,0.0241,0.0245,0.0237,0.0236,0.0238,0.023,0.0228,0.0229,0.0229,0.0211,0.0208,0.0194,0.0184,0.018,0.0196,0.0173,0.0155,0.0155,0.0156,0.0206,0.021,0.0214,0,0,0,0,0,0.0239,0.0248,0.0245,0.0246,0.0241,0.0238,0.0236,0.023,0.0229,0.023,0.0219,0.0209,0.0185,0.0183,0.0179,0.0194,0.0154,0.0155,0.0156,0.0205,0.021,0.0214,0,0,0,0,0,0,0.0246,0.0248,0.0244,0.0252,0.0247,0.0237,0.0241,0.0235,0.0226,0.0228,0.0209,0.0205,0.0205,0.0188,0.0187,0.0189,0.0169,0.0169,0.0207,0.0212,0.0216,0.0231,0.0172,0,0,0,0,0,0.025,0.0259,0.0252,0.0259,0.026,0.0251,0.0249,0.0245,0.0237,0.0233,0.022,0.0208,0.0203,0.0199,0.0187,0.0186,0.0159,0.0193,0.0197,0.02,0.0209,0.0177,0.0179,0.0158,0.0158,0.0158,0,0,0.0255,0.0258,0.0262,0.0262,0.0259,0.0266,0.025,0.0253,0.0262,0.0231,0.0237,0.022,0.0204,0.0206,0.0204,0.0196,0.019,0.0201,0.0204,0.0211,0.0178,0.018,0.0182,0.0158,0.0158,0.0158,0,0,0.0271,0.0272,0.0284,0.0283,0.0284,0.0281,0.0284,0.0276,0.0275,0.0274,0.0259,0.0253,0.0238,0.0233,0.0229,0.0246,0.0211,0.0241,0.0275,0.0244,0.0246,0.0247,0.0209,0.0206,0.0244,0.0244,0.0244,0,0.0276,0.0293,0.0285,0.0296,0.0306,0.0291,0.0308,0.0304,0.0293,0.0299,0.0284,0.0271,0.0255,0.0266,0.0272,0.0257,0.0227,0.0261,0.025,0.0251,0.0251,0.0211,0.0208,0.0247,0.0247,0.0246,0.0246,0,0.03,0.0314,0.0323,0.0337,0.0342,0.0355,0.0353,0.0356,0.0354,0.0349,0.0353,0.0325,0.032,0.0314,0.03,0.0301,0.0274,0.0258,0.0241,0.0256,0.0213,0.0208,0.0251,0.025,0.0249,0.0248,0,0,0.0311,0.0336,0.034,0.0361,0.0369,0.038,0.0398,0.0413,0.0434,0.0412,0.043,0.0415,0.0396,0.039,0.0366,0.0341,0.0313,0.0304,0.0301,0.0271,0.0235,0.0205,0.0196,0.0291,0.0291,0.0291,0.0201,0,0.0334,0.0372,0.0377,0.0418,0.0441,0.0442,0.0464,0.0474,0.0475,0.0484,0.0458,0.0461,0.0426,0.0425,0.0395,0.0336,0.0304,0.0338,0.022,0.0217,0.0192,0.0191,0.029,0.0198,0.0197,0.0196,0.0195,0,0.0357,0.0383,0.0428,0.0475,0.0486,0.0511,0.0555,0.057,0.0575,0.0574,0.0565,0.0535,0.0507,0.0468,0.0374,0.0395,0.0323,0.0269,0.0264,0.0217,0.0178,0.0179,0.0186,0.0187,0.0187,0.0188,0.0188,0,0.0379,0.0423,0.0468,0.0481,0.0524,0.0556,0.0584,0.0603,0.0633,0.0631,0.0641,0.0594,0.0573,0.0481,0.0368,0.0368,0.0249,0.0233,0.0136,0.0133,0.0164,0.0163,0.0162,0.0162,0.0162,0.0163,0.0163,0,0.0406,0.0442,0.0488,0.0513,0.0581,0.0595,0.0665,0.0679,0.0707,0.0743,0.0692,0.0693,0.0574,0.049,0.0381,0.0242,0.0254,0.0142,0.011,0.0186,0.019,0.0159,0.016,0.0159,0.016,0.0161,0.0161,0,0.0423,0.0448,0.0506,0.0566,0.0594,0.0644,0.073,0.0774,0.0787,0.0828,0.0828,0.0767,0.0652,0.0517,0.036,0.0263,0.0131,0.0077,0.0164,0.0138,0.0031,0.0035,-0.0037,-0.0038,-0.004,-0.0041,-0.0042,0,0.0434,0.0465,0.0546,0.0592,0.0627,0.0707,0.0765,0.0814,0.086,0.087,0.0886,0.0793,0.0729,0.0489,0.0339,0.0119,0.0087,0.0012,0.0027,0.0035,0.0011,0.0018,0.0025,-0.0045,-0.0045,-0.0045,-0.0046,0,0.0457,0.0486,0.0534,0.0627,0.0702,0.0788,0.0872,0.091,0.0954,0.0965,0.093,0.0807,0.0671,0.0485,0.0309,0.0154,0.0059,-0.0004,-0.0002,0.0012,0.0025,0.0004,0.0012,-0.0051,-0.005,-0.005,-0.0049,0,0.0474,0.0511,0.0575,0.0661,0.0754,0.0841,0.0888,0.0939,0.0982,0.0986,0.0969,0.0825,0.0746,0.0502,0.0344,0.0182,0.0141,0.0088,0.0085,0.0088,0.0148,0.0185,0.0131,0,0,0,0,0,0.0486,0.053,0.0605,0.07,0.0792,0.085,0.0945,0.0981,0.102,0.1,0.0989,0.0861,0.0621,0.0521,0.0354,0.0306,0.0107,0.0102,0.0043,-0.0079,-0.0073,-0.0028,0,0,0,0,0,0,0.0494,0.056,0.06,0.0716,0.0783,0.0891,0.0954,0.0982,0.0974,0.0979,0.0858,0.0803,0.0574,0.0712,0.0344,0.0296,0.0231,-0.0004,-0.0009,-0.0083,-0.0077,-0.0073,-0.0024,0,0,0,0,0]}]]